Data supplied by UK-AIR on 24/3/2016
All Data GMT hour ending 
Status: R =Ratified P=Provisional,P*=As supplied
,,London Westminster,,,,,,,,,,,,,,,,,,,,,,,
Date,time,"Nitric oxide",status,unit,"Nitrogen dioxide",status,unit,"Nitrogen oxides as nitrogen dioxide",status,unit,"Daily measured PM<sub>2.5</sub> (uncorrected)",status,unit
 
01-01-2015,01:00,11.23734,R,ugm-3,32.17016,R,ugm-3,49.40051,R,ugm-3,,,
01-01-2015,02:00,1.83436,R,ugm-3,26.29688,R,ugm-3,29.10953,R,ugm-3,,,
01-01-2015,03:00,1.59093,R,ugm-3,24.59427,R,ugm-3,27.03367,R,ugm-3,,,
01-01-2015,04:00,3.39702,R,ugm-3,25.29233,R,ugm-3,30.50103,R,ugm-3,,,
01-01-2015,05:00,2.75186,R,ugm-3,18.38343,R,ugm-3,22.60288,R,ugm-3,,,
01-01-2015,06:00,2.58004,R,ugm-3,22.75684,R,ugm-3,26.71284,R,ugm-3,,,
01-01-2015,07:00,10.23410,R,ugm-3,27.00928,R,ugm-3,42.70134,R,ugm-3,,,
01-01-2015,08:00,5.89100,R,ugm-3,23.45873,R,ugm-3,32.49146,R,ugm-3,,,
01-01-2015,09:00,6.53585,R,ugm-3,21.18572,R,ugm-3,31.20722,R,ugm-3,,,
01-01-2015,10:00,8.25619,R,ugm-3,25.61077,R,ugm-3,38.27008,R,ugm-3,,,
01-01-2015,11:00,7.74012,R,ugm-3,24.47618,R,ugm-3,36.34419,R,ugm-3,,,
01-01-2015,12:00,8.64317,R,ugm-3,22.70663,R,ugm-3,35.95930,R,ugm-3,,,
01-01-2015,13:00,8.38497,R,ugm-3,26.69802,R,ugm-3,39.55480,R,ugm-3,,,
01-01-2015,14:00,10.44926,R,ugm-3,24.68846,R,ugm-3,40.71043,R,ugm-3,,,
01-01-2015,15:00,8.59982,R,ugm-3,27.39561,R,ugm-3,40.58182,R,ugm-3,,,
01-01-2015,16:00,10.57804,R,ugm-3,26.73818,R,ugm-3,42.95762,R,ugm-3,,,
01-01-2015,17:00,7.52496,R,ugm-3,24.61340,R,ugm-3,36.15151,R,ugm-3,,,
01-01-2015,18:00,5.11705,R,ugm-3,22.65548,R,ugm-3,30.50151,R,ugm-3,,,
01-01-2015,19:00,2.53701,R,ugm-3,18.45610,R,ugm-3,22.34613,R,ugm-3,,,
01-01-2015,20:00,1.80609,R,ugm-3,17.65046,R,ugm-3,20.41976,R,ugm-3,,,
01-01-2015,21:00,2.10731,R,ugm-3,16.09656,R,ugm-3,19.32773,R,ugm-3,,,
01-01-2015,22:00,2.58004,R,ugm-3,16.78458,R,ugm-3,20.74058,R,ugm-3,,,
01-01-2015,23:00,0.90336,R,ugm-3,9.40233,R,ugm-3,10.78746,R,ugm-3,,,
01-01-2015,24:00,1.29002,R,ugm-3,8.16733,R,ugm-3,10.14533,R,ugm-3,,,
02-01-2015,01:00,0.80451,R,ugm-3,6.14550,R,ugm-3,7.37906,R,ugm-3,,,
02-01-2015,02:00,1.03443,R,ugm-3,5.53669,R,ugm-3,7.12279,R,ugm-3,,,
02-01-2015,03:00,0.60338,R,ugm-3,6.28304,R,ugm-3,7.20821,R,ugm-3,,,
02-01-2015,04:00,0.28730,R,ugm-3,7.71184,R,ugm-3,8.15235,R,ugm-3,,,
02-01-2015,05:00,0.99098,R,ugm-3,10.25769,R,ugm-3,11.77718,R,ugm-3,,,
02-01-2015,06:00,2.36987,R,ugm-3,17.28183,R,ugm-3,20.91558,R,ugm-3,,,
02-01-2015,07:00,21.84864,R,ugm-3,50.28967,R,ugm-3,83.79045,R,ugm-3,,,
02-01-2015,08:00,17.92713,R,ugm-3,50.38194,R,ugm-3,77.86983,R,ugm-3,,,
02-01-2015,09:00,24.47764,R,ugm-3,59.25881,R,ugm-3,96.79067,R,ugm-3,,,
02-01-2015,10:00,27.58030,R,ugm-3,61.25881,R,ugm-3,103.54801,R,ugm-3,,,
02-01-2015,11:00,30.25233,R,ugm-3,58.44935,R,ugm-3,104.83560,R,ugm-3,,,
02-01-2015,12:00,20.72794,R,ugm-3,43.44913,R,ugm-3,75.23153,R,ugm-3,,,
02-01-2015,13:00,22.79690,R,ugm-3,52.95473,R,ugm-3,87.90950,R,ugm-3,,,
02-01-2015,14:00,20.98707,R,ugm-3,42.92319,R,ugm-3,75.10292,R,ugm-3,,,
02-01-2015,15:00,25.42528,R,ugm-3,49.37597,R,ugm-3,88.36085,R,ugm-3,,,
02-01-2015,16:00,24.77886,R,ugm-3,62.85192,R,ugm-3,100.84565,R,ugm-3,,,
02-01-2015,17:00,33.18255,R,ugm-3,81.17893,R,ugm-3,132.05813,R,ugm-3,,,
02-01-2015,18:00,20.21125,R,ugm-3,79.44429,R,ugm-3,110.43444,R,ugm-3,,,
02-01-2015,19:00,24.99433,R,ugm-3,77.25878,R,ugm-3,115.58289,R,ugm-3,,,
02-01-2015,20:00,10.73021,R,ugm-3,66.37331,R,ugm-3,82.82607,R,ugm-3,,,
02-01-2015,21:00,7.88637,R,ugm-3,57.34775,R,ugm-3,69.44001,R,ugm-3,,,
02-01-2015,22:00,6.67929,R,ugm-3,51.34632,R,ugm-3,61.58776,R,ugm-3,,,
02-01-2015,23:00,5.47284,R,ugm-3,49.07858,R,ugm-3,57.47015,R,ugm-3,,,
02-01-2015,24:00,3.14569,R,ugm-3,40.93324,R,ugm-3,45.75656,R,ugm-3,,,
03-01-2015,01:00,3.28206,R,ugm-3,36.96608,R,ugm-3,41.99850,R,ugm-3,,,
03-01-2015,02:00,1.78489,R,ugm-3,31.43003,R,ugm-3,34.16681,R,ugm-3,,,
03-01-2015,03:00,1.33867,R,ugm-3,18.40877,R,ugm-3,20.46136,R,ugm-3,,,
03-01-2015,04:00,1.33898,R,ugm-3,22.92657,R,ugm-3,24.97964,R,ugm-3,,,
03-01-2015,05:00,0.82072,R,ugm-3,16.42742,R,ugm-3,17.68584,R,ugm-3,,,
03-01-2015,06:00,2.41852,R,ugm-3,38.50532,R,ugm-3,42.21366,R,ugm-3,,,
03-01-2015,07:00,10.62388,R,ugm-3,46.51439,R,ugm-3,62.80411,R,ugm-3,,,
03-01-2015,08:00,27.16526,R,ugm-3,75.30612,R,ugm-3,116.95894,R,ugm-3,,,
03-01-2015,09:00,24.78946,R,ugm-3,72.42972,R,ugm-3,110.43970,R,ugm-3,,,
03-01-2015,10:00,24.53096,R,ugm-3,74.31067,R,ugm-3,111.92428,R,ugm-3,,,
03-01-2015,11:00,27.42439,R,ugm-3,72.00419,R,ugm-3,114.05433,R,ugm-3,,,
03-01-2015,12:00,38.43711,R,ugm-3,75.25688,R,ugm-3,134.19295,R,ugm-3,,,
03-01-2015,13:00,44.87162,R,ugm-3,76.17009,R,ugm-3,144.97228,R,ugm-3,,,
03-01-2015,14:00,47.42016,R,ugm-3,78.65252,R,ugm-3,151.36242,R,ugm-3,,,
03-01-2015,15:00,32.82239,R,ugm-3,70.82753,R,ugm-3,121.15448,R,ugm-3,,,
03-01-2015,16:00,19.86637,R,ugm-3,59.90428,R,ugm-3,90.36563,R,ugm-3,,,
03-01-2015,17:00,12.22198,R,ugm-3,49.35684,R,ugm-3,68.09695,R,ugm-3,,,
03-01-2015,18:00,12.61083,R,ugm-3,55.60259,R,ugm-3,74.93892,R,ugm-3,,,
03-01-2015,19:00,18.13855,R,ugm-3,69.91192,R,ugm-3,97.72397,R,ugm-3,,,
03-01-2015,20:00,13.60430,R,ugm-3,64.40678,R,ugm-3,85.26642,R,ugm-3,,,
03-01-2015,21:00,29.71318,R,ugm-3,76.62766,R,ugm-3,122.18723,R,ugm-3,,,
03-01-2015,22:00,33.03848,R,ugm-3,76.17631,R,ugm-3,126.83461,R,ugm-3,,,
03-01-2015,23:00,22.11182,R,ugm-3,66.01424,R,ugm-3,99.91856,R,ugm-3,,,
03-01-2015,24:00,8.59421,R,ugm-3,50.20743,R,ugm-3,63.38503,R,ugm-3,,,
04-01-2015,01:00,6.34335,R,ugm-3,48.23644,R,ugm-3,57.96278,R,ugm-3,,,
04-01-2015,02:00,6.97781,R,ugm-3,47.95403,R,ugm-3,58.65319,R,ugm-3,,,
04-01-2015,03:00,21.45200,R,ugm-3,53.85648,R,ugm-3,86.74909,R,ugm-3,,,
04-01-2015,04:00,30.70790,R,ugm-3,58.68411,R,ugm-3,105.76890,R,ugm-3,,,
04-01-2015,05:00,39.05483,R,ugm-3,57.72355,R,ugm-3,117.60680,R,ugm-3,,,
04-01-2015,06:00,30.10172,R,ugm-3,53.72595,R,ugm-3,99.88127,R,ugm-3,,,
04-01-2015,07:00,20.80341,R,ugm-3,52.71711,R,ugm-3,84.61522,R,ugm-3,,,
04-01-2015,08:00,40.17928,R,ugm-3,53.15316,R,ugm-3,114.76052,R,ugm-3,,,
04-01-2015,09:00,41.34737,R,ugm-3,52.07403,R,ugm-3,115.47245,R,ugm-3,,,
04-01-2015,10:00,47.92127,R,ugm-3,50.59806,R,ugm-3,124.07631,R,ugm-3,,,
04-01-2015,11:00,31.22647,R,ugm-3,46.17923,R,ugm-3,94.05914,R,ugm-3,,,
04-01-2015,12:00,8.34756,R,ugm-3,34.42452,R,ugm-3,47.22393,R,ugm-3,,,
04-01-2015,13:00,8.56365,R,ugm-3,34.86918,R,ugm-3,47.99993,R,ugm-3,,,
04-01-2015,14:00,8.77975,R,ugm-3,37.70828,R,ugm-3,51.17037,R,ugm-3,,,
04-01-2015,15:00,9.68840,R,ugm-3,46.08312,R,ugm-3,60.93847,R,ugm-3,,,
04-01-2015,16:00,15.74342,R,ugm-3,52.06590,R,ugm-3,76.20548,R,ugm-3,,,
04-01-2015,17:00,10.38003,R,ugm-3,46.89833,R,ugm-3,62.81415,R,ugm-3,,,
04-01-2015,18:00,8.99615,R,ugm-3,53.28990,R,ugm-3,67.08381,R,ugm-3,,,
04-01-2015,19:00,9.29862,R,ugm-3,55.15507,R,ugm-3,69.41275,R,ugm-3,,,
04-01-2015,20:00,20.50062,R,ugm-3,61.39651,R,ugm-3,92.83036,R,ugm-3,,,
04-01-2015,21:00,33.51901,R,ugm-3,64.27148,R,ugm-3,115.66657,R,ugm-3,,,
04-01-2015,22:00,49.91071,R,ugm-3,67.66616,R,ugm-3,144.19485,R,ugm-3,,,
04-01-2015,23:00,44.33154,R,ugm-3,69.10532,R,ugm-3,137.07939,R,ugm-3,,,
04-01-2015,24:00,17.99199,R,ugm-3,61.81487,R,ugm-3,89.40220,R,ugm-3,,,
05-01-2015,01:00,9.94015,R,ugm-3,54.69304,R,ugm-3,69.93439,R,ugm-3,,,
05-01-2015,02:00,6.06812,R,ugm-3,49.30553,R,ugm-3,58.60984,R,ugm-3,,,
05-01-2015,03:00,8.10527,R,ugm-3,49.16416,R,ugm-3,61.59206,R,ugm-3,,,
05-01-2015,04:00,5.50465,R,ugm-3,42.06496,R,ugm-3,50.50530,R,ugm-3,,,
05-01-2015,05:00,2.99071,R,ugm-3,40.08457,R,ugm-3,44.67026,R,ugm-3,,,
05-01-2015,06:00,8.75542,R,ugm-3,50.82564,R,ugm-3,64.25044,R,ugm-3,,,
05-01-2015,07:00,31.72757,R,ugm-3,66.36710,R,ugm-3,115.01536,R,ugm-3,,,
05-01-2015,08:00,51.27557,R,ugm-3,73.54328,R,ugm-3,152.16472,R,ugm-3,,,
05-01-2015,09:00,89.72141,R,ugm-3,82.28053,R,ugm-3,219.85144,R,ugm-3,,,
05-01-2015,10:00,72.34059,R,ugm-3,68.47419,R,ugm-3,179.39489,R,ugm-3,,,
05-01-2015,11:00,51.14554,R,ugm-3,60.12757,R,ugm-3,138.54963,R,ugm-3,,,
05-01-2015,12:00,43.43036,R,ugm-3,56.78691,R,ugm-3,123.37920,R,ugm-3,,,
05-01-2015,13:00,35.88856,R,ugm-3,56.22654,R,ugm-3,111.25491,R,ugm-3,,,
05-01-2015,14:00,35.41178,R,ugm-3,61.62553,R,ugm-3,115.92284,R,ugm-3,,,
05-01-2015,15:00,25.74614,R,ugm-3,63.54377,R,ugm-3,103.02064,R,ugm-3,,,
05-01-2015,16:00,18.76781,R,ugm-3,59.72116,R,ugm-3,88.49807,R,ugm-3,,,
05-01-2015,17:00,17.55419,R,ugm-3,59.50696,R,ugm-3,86.42301,R,ugm-3,,,
05-01-2015,18:00,11.22601,R,ugm-3,48.59328,R,ugm-3,65.80626,R,ugm-3,,,
05-01-2015,19:00,8.84211,R,ugm-3,52.44314,R,ugm-3,66.00085,R,ugm-3,,,
05-01-2015,20:00,5.11455,R,ugm-3,44.41351,R,ugm-3,52.25572,R,ugm-3,,,
05-01-2015,21:00,4.20434,R,ugm-3,35.04704,R,ugm-3,41.49360,R,ugm-3,,,
05-01-2015,22:00,5.37462,R,ugm-3,38.95763,R,ugm-3,47.19859,R,ugm-3,,,
05-01-2015,23:00,2.55728,R,ugm-3,34.52493,R,ugm-3,38.44603,R,ugm-3,,,
05-01-2015,24:00,2.68731,R,ugm-3,33.48309,R,ugm-3,37.60358,R,ugm-3,,,
06-01-2015,01:00,2.60436,R,ugm-3,26.93501,R,ugm-3,30.92831,R,ugm-3,,,
06-01-2015,02:00,1.44645,R,ugm-3,13.80953,R,ugm-3,16.02739,R,ugm-3,,,
06-01-2015,03:00,1.38887,R,ugm-3,19.83310,R,ugm-3,21.96267,R,ugm-3,,,
06-01-2015,04:00,1.64955,R,ugm-3,18.78314,R,ugm-3,21.31242,R,ugm-3,,,
06-01-2015,05:00,1.51952,R,ugm-3,22.88115,R,ugm-3,25.21105,R,ugm-3,,,
06-01-2015,06:00,2.51736,R,ugm-3,25.37983,R,ugm-3,29.23973,R,ugm-3,,,
06-01-2015,07:00,25.00213,R,ugm-3,46.78405,R,ugm-3,85.12012,R,ugm-3,,,
06-01-2015,08:00,20.57484,R,ugm-3,51.03841,R,ugm-3,82.58605,R,ugm-3,,,
06-01-2015,09:00,21.83305,R,ugm-3,51.31859,R,ugm-3,84.79547,R,ugm-3,,,
06-01-2015,10:00,33.20562,R,ugm-3,48.43550,R,ugm-3,99.35007,R,ugm-3,,,
06-01-2015,11:00,19.53241,R,ugm-3,43.92965,R,ugm-3,73.87892,R,ugm-3,,,
06-01-2015,12:00,15.93020,R,ugm-3,44.12472,R,ugm-3,68.55069,R,ugm-3,,,
06-01-2015,13:00,25.13216,R,ugm-3,57.76085,R,ugm-3,96.29629,R,ugm-3,,,
06-01-2015,14:00,29.73314,R,ugm-3,58.11323,R,ugm-3,103.70340,R,ugm-3,,,
06-01-2015,15:00,30.68795,R,ugm-3,61.19761,R,ugm-3,108.25180,R,ugm-3,,,
06-01-2015,16:00,35.89667,R,ugm-3,71.27457,R,ugm-3,126.31537,R,ugm-3,,,
06-01-2015,17:00,43.40573,R,ugm-3,82.11319,R,ugm-3,148.66771,R,ugm-3,,,
06-01-2015,18:00,46.22743,R,ugm-3,86.55832,R,ugm-3,157.43939,R,ugm-3,,,
06-01-2015,19:00,48.61477,R,ugm-3,87.25160,R,ugm-3,161.79320,R,ugm-3,,,
06-01-2015,20:00,46.57481,R,ugm-3,85.76606,R,ugm-3,157.17977,R,ugm-3,,,
06-01-2015,21:00,38.15428,R,ugm-3,83.21288,R,ugm-3,141.71529,R,ugm-3,,,
06-01-2015,22:00,24.22070,R,ugm-3,73.58344,R,ugm-3,110.72132,R,ugm-3,,,
06-01-2015,23:00,34.42111,R,ugm-3,74.83660,R,ugm-3,127.61491,R,ugm-3,,,
06-01-2015,24:00,11.54594,R,ugm-3,63.51795,R,ugm-3,81.22148,R,ugm-3,,,
07-01-2015,01:00,11.71547,R,ugm-3,58.53143,R,ugm-3,76.49490,R,ugm-3,,,
07-01-2015,02:00,3.76976,R,ugm-3,43.36403,R,ugm-3,49.14424,R,ugm-3,,,
07-01-2015,03:00,2.00129,R,ugm-3,38.67410,R,ugm-3,41.74270,R,ugm-3,,,
07-01-2015,04:00,2.74063,R,ugm-3,38.51679,R,ugm-3,42.71903,R,ugm-3,,,
07-01-2015,05:00,3.17563,R,ugm-3,43.38506,R,ugm-3,48.25429,R,ugm-3,,,
07-01-2015,06:00,8.91757,R,ugm-3,55.87512,R,ugm-3,69.54854,R,ugm-3,,,
07-01-2015,07:00,42.97790,R,ugm-3,74.04531,R,ugm-3,139.94384,R,ugm-3,,,
07-01-2015,08:00,53.85249,R,ugm-3,78.20978,R,ugm-3,160.78244,R,ugm-3,,,
07-01-2015,09:00,64.98807,R,ugm-3,84.77491,R,ugm-3,184.42190,R,ugm-3,,,
07-01-2015,10:00,34.58202,R,ugm-3,66.01568,R,ugm-3,119.04069,R,ugm-3,,,
07-01-2015,11:00,33.32068,R,ugm-3,58.18160,R,ugm-3,109.27260,R,ugm-3,,,
07-01-2015,12:00,24.83842,R,ugm-3,55.23252,R,ugm-3,93.31757,R,ugm-3,,,
07-01-2015,13:00,15.61651,R,ugm-3,46.12520,R,ugm-3,70.07018,R,ugm-3,,,
07-01-2015,14:00,12.09257,R,ugm-3,41.30378,R,ugm-3,59.84547,R,ugm-3,,,
07-01-2015,15:00,12.48454,R,ugm-3,44.47997,R,ugm-3,63.62266,R,ugm-3,,,
07-01-2015,16:00,14.13721,R,ugm-3,43.24832,R,ugm-3,64.92507,R,ugm-3,,,
07-01-2015,17:00,14.78955,R,ugm-3,48.10894,R,ugm-3,70.78593,R,ugm-3,,,
07-01-2015,18:00,8.56926,R,ugm-3,35.70112,R,ugm-3,48.84047,R,ugm-3,,,
07-01-2015,19:00,3.65397,R,ugm-3,29.88807,R,ugm-3,35.49074,R,ugm-3,,,
07-01-2015,20:00,3.30597,R,ugm-3,25.86274,R,ugm-3,30.93182,R,ugm-3,,,
07-01-2015,21:00,4.61096,R,ugm-3,29.39799,R,ugm-3,36.46803,R,ugm-3,,,
07-01-2015,22:00,5.30695,R,ugm-3,25.39943,R,ugm-3,33.53664,R,ugm-3,,,
07-01-2015,23:00,3.04497,R,ugm-3,20.14197,R,ugm-3,24.81086,R,ugm-3,,,
07-01-2015,24:00,2.43598,R,ugm-3,13.65190,R,ugm-3,17.38702,R,ugm-3,,,
08-01-2015,01:00,1.16248,R,ugm-3,9.70339,R,ugm-3,11.48584,R,ugm-3,,,
08-01-2015,02:00,0.98828,R,ugm-3,7.62195,R,ugm-3,9.13729,R,ugm-3,,,
08-01-2015,03:00,0.43624,R,ugm-3,7.16279,R,ugm-3,7.83169,R,ugm-3,,,
08-01-2015,04:00,0.46483,R,ugm-3,8.16255,R,ugm-3,8.87528,R,ugm-3,,,
08-01-2015,05:00,0.39228,R,ugm-3,9.18765,R,ugm-3,9.78913,R,ugm-3,,,
08-01-2015,06:00,0.82852,R,ugm-3,20.20174,R,ugm-3,21.47212,R,ugm-3,,,
08-01-2015,07:00,14.12443,R,ugm-3,52.67886,R,ugm-3,74.33601,R,ugm-3,,,
08-01-2015,08:00,24.93540,R,ugm-3,78.00179,R,ugm-3,116.23553,R,ugm-3,,,
08-01-2015,09:00,45.94710,R,ugm-3,94.14473,R,ugm-3,164.59597,R,ugm-3,,,
08-01-2015,10:00,74.67492,R,ugm-3,99.43566,R,ugm-3,213.93560,R,ugm-3,,,
08-01-2015,11:00,61.98956,R,ugm-3,90.36563,R,ugm-3,185.41496,R,ugm-3,,,
08-01-2015,12:00,50.78600,R,ugm-3,93.18608,R,ugm-3,171.05687,R,ugm-3,,,
08-01-2015,13:00,50.61169,R,ugm-3,86.99245,R,ugm-3,164.59597,R,ugm-3,,,
08-01-2015,14:00,34.00265,R,ugm-3,65.79574,R,ugm-3,117.93240,R,ugm-3,,,
08-01-2015,15:00,40.93389,R,ugm-3,71.35346,R,ugm-3,134.11789,R,ugm-3,,,
08-01-2015,16:00,27.11506,R,ugm-3,78.83612,R,ugm-3,120.41196,R,ugm-3,,,
08-01-2015,17:00,25.76392,R,ugm-3,79.14642,R,ugm-3,118.65054,R,ugm-3,,,
08-01-2015,18:00,15.91149,R,ugm-3,60.96859,R,ugm-3,85.36587,R,ugm-3,,,
08-01-2015,19:00,13.64453,R,ugm-3,58.17921,R,ugm-3,79.10052,R,ugm-3,,,
08-01-2015,20:00,10.94194,R,ugm-3,55.99178,R,ugm-3,72.76919,R,ugm-3,,,
08-01-2015,21:00,5.44914,R,ugm-3,44.90024,R,ugm-3,53.25548,R,ugm-3,,,
08-01-2015,22:00,4.05435,R,ugm-3,31.50653,R,ugm-3,37.72311,R,ugm-3,,,
08-01-2015,23:00,3.05152,R,ugm-3,23.38414,R,ugm-3,28.06307,R,ugm-3,,,
08-01-2015,24:00,2.44097,R,ugm-3,14.59668,R,ugm-3,18.33944,R,ugm-3,,,
09-01-2015,01:00,1.45518,R,ugm-3,9.01871,R,ugm-3,11.24996,R,ugm-3,,,
09-01-2015,02:00,1.39698,R,ugm-3,6.40433,R,ugm-3,8.54633,R,ugm-3,,,
09-01-2015,03:00,0.56752,R,ugm-3,5.53956,R,ugm-3,6.40974,R,ugm-3,,,
09-01-2015,04:00,0.65483,R,ugm-3,6.64881,R,ugm-3,7.65287,R,ugm-3,,,
09-01-2015,05:00,0.61118,R,ugm-3,7.23929,R,ugm-3,8.17642,R,ugm-3,,,
09-01-2015,06:00,1.44063,R,ugm-3,12.76881,R,ugm-3,14.97774,R,ugm-3,,,
09-01-2015,07:00,14.93018,R,ugm-3,33.94640,R,ugm-3,56.83902,R,ugm-3,,,
09-01-2015,08:00,11.56871,R,ugm-3,40.60524,R,ugm-3,58.34368,R,ugm-3,,,
09-01-2015,09:00,23.79225,R,ugm-3,59.99465,R,ugm-3,96.47558,R,ugm-3,,,
09-01-2015,10:00,28.98725,R,ugm-3,58.50481,R,ugm-3,102.95131,R,ugm-3,,,
09-01-2015,11:00,20.03788,R,ugm-3,43.31669,R,ugm-3,74.04100,R,ugm-3,,,
09-01-2015,12:00,21.52216,R,ugm-3,41.56436,R,ugm-3,74.56455,R,ugm-3,,,
09-01-2015,13:00,21.95872,R,ugm-3,47.43574,R,ugm-3,81.10530,R,ugm-3,,,
09-01-2015,14:00,14.88653,R,ugm-3,38.78837,R,ugm-3,61.61406,R,ugm-3,,,
09-01-2015,15:00,15.27943,R,ugm-3,42.76446,R,ugm-3,66.19258,R,ugm-3,,,
09-01-2015,16:00,15.67233,R,ugm-3,40.78837,R,ugm-3,64.81893,R,ugm-3,,,
09-01-2015,17:00,14.36266,R,ugm-3,39.26410,R,ugm-3,61.28654,R,ugm-3,,,
09-01-2015,18:00,7.72702,R,ugm-3,26.67698,R,ugm-3,38.52492,R,ugm-3,,,
09-01-2015,19:00,7.33412,R,ugm-3,25.05566,R,ugm-3,36.30116,R,ugm-3,,,
09-01-2015,20:00,6.33005,R,ugm-3,22.99781,R,ugm-3,32.70375,R,ugm-3,,,
09-01-2015,21:00,2.96857,R,ugm-3,14.54695,R,ugm-3,19.09870,R,ugm-3,,,
09-01-2015,22:00,2.92492,R,ugm-3,14.22183,R,ugm-3,18.70664,R,ugm-3,,,
09-01-2015,23:00,3.14320,R,ugm-3,12.05544,R,ugm-3,16.87494,R,ugm-3,,,
09-01-2015,24:00,2.48836,R,ugm-3,10.11665,R,ugm-3,13.93208,R,ugm-3,,,
10-01-2015,01:00,1.28347,R,ugm-3,7.47086,R,ugm-3,9.43883,R,ugm-3,,,
10-01-2015,02:00,1.80859,R,ugm-3,5.26766,R,ugm-3,8.04079,R,ugm-3,,,
10-01-2015,03:00,0.48146,R,ugm-3,4.57135,R,ugm-3,5.30958,R,ugm-3,,,
10-01-2015,04:00,0.52511,R,ugm-3,2.69089,R,ugm-3,3.49605,R,ugm-3,,,
10-01-2015,05:00,0.78767,R,ugm-3,3.51183,R,ugm-3,4.71957,R,ugm-3,,,
10-01-2015,06:00,0.65639,R,ugm-3,4.43413,R,ugm-3,5.44058,R,ugm-3,,,
10-01-2015,07:00,5.86231,R,ugm-3,13.36407,R,ugm-3,22.35282,R,ugm-3,,,
10-01-2015,08:00,5.51213,R,ugm-3,15.34303,R,ugm-3,23.79485,R,ugm-3,,,
10-01-2015,09:00,11.15616,R,ugm-3,23.73221,R,ugm-3,40.83809,R,ugm-3,,,
10-01-2015,10:00,17.14944,R,ugm-3,31.84791,R,ugm-3,58.14335,R,ugm-3,,,
10-01-2015,11:00,17.19310,R,ugm-3,37.09055,R,ugm-3,63.45293,R,ugm-3,,,
10-01-2015,12:00,21.61197,R,ugm-3,45.45726,R,ugm-3,78.59514,R,ugm-3,,,
10-01-2015,13:00,14.87468,R,ugm-3,36.64733,R,ugm-3,59.45484,R,ugm-3,,,
10-01-2015,14:00,13.29965,R,ugm-3,29.75420,R,ugm-3,50.14671,R,ugm-3,,,
10-01-2015,15:00,13.21234,R,ugm-3,37.09868,R,ugm-3,57.35731,R,ugm-3,,,
10-01-2015,16:00,18.19935,R,ugm-3,44.92176,R,ugm-3,72.82704,R,ugm-3,,,
10-01-2015,17:00,24.80568,R,ugm-3,58.39054,R,ugm-3,96.42538,R,ugm-3,,,
10-01-2015,18:00,18.85575,R,ugm-3,55.25547,R,ugm-3,84.16721,R,ugm-3,,,
10-01-2015,19:00,11.33141,R,ugm-3,58.73001,R,ugm-3,76.10459,R,ugm-3,,,
10-01-2015,20:00,8.92506,R,ugm-3,51.01403,R,ugm-3,64.69892,R,ugm-3,,,
10-01-2015,21:00,6.43139,R,ugm-3,42.12090,R,ugm-3,51.98223,R,ugm-3,,,
10-01-2015,22:00,6.08090,R,ugm-3,37.80726,R,ugm-3,47.13117,R,ugm-3,,,
10-01-2015,23:00,3.76248,R,ugm-3,33.49600,R,ugm-3,39.26506,R,ugm-3,,,
10-01-2015,24:00,3.32499,R,ugm-3,28.72623,R,ugm-3,33.82448,R,ugm-3,,,
11-01-2015,01:00,1.87053,R,ugm-3,24.63619,R,ugm-3,27.50430,R,ugm-3,,,
11-01-2015,02:00,1.75370,R,ugm-3,15.70545,R,ugm-3,18.39443,R,ugm-3,,,
11-01-2015,03:00,0.83289,R,ugm-3,13.50416,R,ugm-3,14.78123,R,ugm-3,,,
11-01-2015,04:00,1.14003,R,ugm-3,13.36168,R,ugm-3,15.10971,R,ugm-3,,,
11-01-2015,05:00,1.35925,R,ugm-3,14.86491,R,ugm-3,16.94905,R,ugm-3,,,
11-01-2015,06:00,0.96479,R,ugm-3,15.79821,R,ugm-3,17.27753,R,ugm-3,,,
11-01-2015,07:00,2.32372,R,ugm-3,23.17424,R,ugm-3,26.73723,R,ugm-3,,,
11-01-2015,08:00,4.60347,R,ugm-3,31.83308,R,ugm-3,38.89164,R,ugm-3,,,
11-01-2015,09:00,5.96241,R,ugm-3,38.88017,R,ugm-3,48.02240,R,ugm-3,,,
11-01-2015,10:00,5.78747,R,ugm-3,31.39656,R,ugm-3,40.27056,R,ugm-3,,,
11-01-2015,11:00,9.77696,R,ugm-3,33.81969,R,ugm-3,48.81083,R,ugm-3,,,
11-01-2015,12:00,11.22352,R,ugm-3,38.23661,R,ugm-3,55.44577,R,ugm-3,,,
11-01-2015,13:00,6.92719,R,ugm-3,25.77285,R,ugm-3,36.39440,R,ugm-3,,,
11-01-2015,14:00,8.24247,R,ugm-3,30.19407,R,ugm-3,42.83235,R,ugm-3,,,
11-01-2015,15:00,4.34029,R,ugm-3,25.53570,R,ugm-3,32.19072,R,ugm-3,,,
11-01-2015,16:00,4.03346,R,ugm-3,26.92513,R,ugm-3,33.10968,R,ugm-3,,,
11-01-2015,17:00,3.11295,R,ugm-3,28.59953,R,ugm-3,33.37265,R,ugm-3,,,
11-01-2015,18:00,3.24423,R,ugm-3,28.79269,R,ugm-3,33.76710,R,ugm-3,,,
11-01-2015,19:00,2.63087,R,ugm-3,28.22228,R,ugm-3,32.25623,R,ugm-3,,,
11-01-2015,20:00,2.63087,R,ugm-3,20.92992,R,ugm-3,24.96386,R,ugm-3,,,
11-01-2015,21:00,2.93770,R,ugm-3,19.67102,R,ugm-3,24.17543,R,ugm-3,,,
11-01-2015,22:00,1.31528,R,ugm-3,14.53835,R,ugm-3,16.55508,R,ugm-3,,,
11-01-2015,23:00,1.09575,R,ugm-3,10.60433,R,ugm-3,12.28447,R,ugm-3,,,
11-01-2015,24:00,1.40290,R,ugm-3,9.21347,R,ugm-3,11.36455,R,ugm-3,,,
12-01-2015,01:00,0.81948,R,ugm-3,7.26431,R,ugm-3,8.52083,R,ugm-3,,,
12-01-2015,02:00,0.76127,R,ugm-3,3.22511,R,ugm-3,4.39238,R,ugm-3,,,
12-01-2015,03:00,0.52667,R,ugm-3,3.27755,R,ugm-3,4.08510,R,ugm-3,,,
12-01-2015,04:00,0.57064,R,ugm-3,3.86851,R,ugm-3,4.74348,R,ugm-3,,,
12-01-2015,05:00,4.12700,R,ugm-3,11.52712,R,ugm-3,17.85510,R,ugm-3,,,
12-01-2015,06:00,1.93144,R,ugm-3,11.40137,R,ugm-3,14.36288,R,ugm-3,,,
12-01-2015,07:00,13.61054,R,ugm-3,36.84670,R,ugm-3,57.71590,R,ugm-3,,,
12-01-2015,08:00,7.46384,R,ugm-3,30.98585,R,ugm-3,42.43025,R,ugm-3,,,
12-01-2015,09:00,12.90800,R,ugm-3,44.31502,R,ugm-3,64.10700,R,ugm-3,,,
12-01-2015,10:00,20.54771,R,ugm-3,49.79720,R,ugm-3,81.30324,R,ugm-3,,,
12-01-2015,11:00,16.90372,R,ugm-3,44.77688,R,ugm-3,70.69556,R,ugm-3,,,
12-01-2015,12:00,16.15721,R,ugm-3,37.15844,R,ugm-3,61.93249,R,ugm-3,,,
12-01-2015,13:00,21.42550,R,ugm-3,49.57104,R,ugm-3,82.42301,R,ugm-3,,,
12-01-2015,14:00,15.76213,R,ugm-3,44.48475,R,ugm-3,68.65301,R,ugm-3,,,
12-01-2015,15:00,18.17690,R,ugm-3,44.73529,R,ugm-3,72.60615,R,ugm-3,,,
12-01-2015,16:00,25.28932,R,ugm-3,57.74555,R,ugm-3,96.52196,R,ugm-3,,,
12-01-2015,17:00,20.94248,R,ugm-3,55.25308,R,ugm-3,87.36443,R,ugm-3,,,
12-01-2015,18:00,11.98624,R,ugm-3,47.11205,R,ugm-3,65.49069,R,ugm-3,,,
12-01-2015,19:00,8.56147,R,ugm-3,46.23564,R,ugm-3,59.36304,R,ugm-3,,,
12-01-2015,20:00,6.10242,R,ugm-3,38.80558,R,ugm-3,48.16249,R,ugm-3,,,
12-01-2015,21:00,7.33194,R,ugm-3,34.87778,R,ugm-3,46.11994,R,ugm-3,,,
12-01-2015,22:00,4.47874,R,ugm-3,28.38150,R,ugm-3,35.24881,R,ugm-3,,,
12-01-2015,23:00,2.89748,R,ugm-3,20.59380,R,ugm-3,25.03654,R,ugm-3,,,
12-01-2015,24:00,1.66858,R,ugm-3,13.38607,R,ugm-3,15.94451,R,ugm-3,,,
13-01-2015,01:00,0.70431,R,ugm-3,7.46003,R,ugm-3,8.53995,R,ugm-3,,,
13-01-2015,02:00,1.17371,R,ugm-3,6.12383,R,ugm-3,7.92349,R,ugm-3,,,
13-01-2015,03:00,0.57189,R,ugm-3,7.70690,R,ugm-3,8.58378,R,ugm-3,,,
13-01-2015,04:00,1.31964,R,ugm-3,10.58760,R,ugm-3,12.61103,R,ugm-3,,,
13-01-2015,05:00,0.83600,R,ugm-3,11.85846,R,ugm-3,13.14031,R,ugm-3,,,
13-01-2015,06:00,6.37963,R,ugm-3,22.30836,R,ugm-3,32.09032,R,ugm-3,,,
13-01-2015,07:00,13.94731,R,ugm-3,41.53950,R,ugm-3,62.92508,R,ugm-3,,,
13-01-2015,08:00,27.01496,R,ugm-3,71.88370,R,ugm-3,113.30606,R,ugm-3,,,
13-01-2015,09:00,36.69463,R,ugm-3,87.34913,R,ugm-3,143.61345,R,ugm-3,,,
13-01-2015,10:00,49.19039,R,ugm-3,85.09191,R,ugm-3,160.51613,R,ugm-3,,,
13-01-2015,11:00,31.85511,R,ugm-3,63.66952,R,ugm-3,112.51333,R,ugm-3,,,
13-01-2015,12:00,28.77459,R,ugm-3,59.67717,R,ugm-3,103.79759,R,ugm-3,,,
13-01-2015,13:00,26.09102,R,ugm-3,55.86843,R,ugm-3,95.87410,R,ugm-3,,,
13-01-2015,14:00,18.74318,R,ugm-3,46.07165,R,ugm-3,74.81078,R,ugm-3,,,
13-01-2015,15:00,21.99894,R,ugm-3,47.48451,R,ugm-3,81.21575,R,ugm-3,,,
13-01-2015,16:00,22.04322,R,ugm-3,59.10342,R,ugm-3,92.90256,R,ugm-3,,,
13-01-2015,17:00,21.64752,R,ugm-3,58.52202,R,ugm-3,91.71442,R,ugm-3,,,
13-01-2015,18:00,14.03556,R,ugm-3,51.70492,R,ugm-3,73.22580,R,ugm-3,,,
13-01-2015,19:00,11.83563,R,ugm-3,52.43740,R,ugm-3,70.58512,R,ugm-3,,,
13-01-2015,20:00,7.25991,R,ugm-3,43.73840,R,ugm-3,54.87010,R,ugm-3,,,
13-01-2015,21:00,9.76792,R,ugm-3,39.89284,R,ugm-3,54.87010,R,ugm-3,,,
13-01-2015,22:00,6.33597,R,ugm-3,34.32603,R,ugm-3,44.04105,R,ugm-3,,,
13-01-2015,23:00,3.29973,R,ugm-3,27.88951,R,ugm-3,32.94903,R,ugm-3,,,
13-01-2015,24:00,3.69606,R,ugm-3,17.44343,R,ugm-3,23.11065,R,ugm-3,,,
14-01-2015,01:00,1.29345,R,ugm-3,8.78093,R,ugm-3,10.76419,R,ugm-3,,,
14-01-2015,02:00,5.52596,R,ugm-3,12.34965,R,ugm-3,20.82266,R,ugm-3,,,
14-01-2015,03:00,1.98414,R,ugm-3,8.14103,R,ugm-3,11.18334,R,ugm-3,,,
14-01-2015,04:00,0.66138,R,ugm-3,8.18359,R,ugm-3,9.19769,R,ugm-3,,,
14-01-2015,05:00,1.32276,R,ugm-3,13.78673,R,ugm-3,15.81494,R,ugm-3,,,
14-01-2015,06:00,1.80796,R,ugm-3,16.15298,R,ugm-3,18.92514,R,ugm-3,,,
14-01-2015,07:00,17.24018,R,ugm-3,41.85506,R,ugm-3,68.28964,R,ugm-3,,,
14-01-2015,08:00,19.88570,R,ugm-3,53.15124,R,ugm-3,83.64223,R,ugm-3,,,
14-01-2015,09:00,28.74808,R,ugm-3,70.13424,R,ugm-3,114.21402,R,ugm-3,,,
14-01-2015,10:00,28.21892,R,ugm-3,58.30639,R,ugm-3,101.57479,R,ugm-3,,,
14-01-2015,11:00,24.91201,R,ugm-3,46.96622,R,ugm-3,85.16410,R,ugm-3,,,
14-01-2015,12:00,25.88210,R,ugm-3,47.39749,R,ugm-3,87.08282,R,ugm-3,,,
14-01-2015,13:00,23.32482,R,ugm-3,48.00997,R,ugm-3,83.77419,R,ugm-3,,,
14-01-2015,14:00,20.98769,R,ugm-3,46.63058,R,ugm-3,78.81126,R,ugm-3,,,
14-01-2015,15:00,24.82377,R,ugm-3,56.23324,R,ugm-3,94.29581,R,ugm-3,,,
14-01-2015,16:00,32.45194,R,ugm-3,71.66759,R,ugm-3,121.42654,R,ugm-3,,,
14-01-2015,17:00,24.86804,R,ugm-3,61.12828,R,ugm-3,99.25875,R,ugm-3,,,
14-01-2015,18:00,16.97544,R,ugm-3,58.67263,R,ugm-3,84.70128,R,ugm-3,,,
14-01-2015,19:00,10.31735,R,ugm-3,33.34587,R,ugm-3,49.16559,R,ugm-3,,,
14-01-2015,20:00,7.84864,R,ugm-3,22.97104,R,ugm-3,35.00544,R,ugm-3,,,
14-01-2015,21:00,4.40889,R,ugm-3,17.85653,R,ugm-3,24.61674,R,ugm-3,,,
14-01-2015,22:00,3.04248,R,ugm-3,13.26797,R,ugm-3,17.93303,R,ugm-3,,,
14-01-2015,23:00,1.98414,R,ugm-3,10.85392,R,ugm-3,13.89623,R,ugm-3,,,